Location: Unspecified
(0.0000°N, 0.0000°E)
Time: 16:22:26
(UTC+00:00)

Diademe D-1C - Pass Details

Date: 08 June 2023
Orbit: 517 x 870 km, 39.9° (Epoch: 21 September)

Event Time Altitude Azimuth Distance (km) Brightness Sun altitude
Exits shadow 03:53:38 - 332° (NNW) 2,505 9.1 -28.6°
Reaches altitude 10° 03:54:06 10° 334° (NNW) 2,341 9.0 -28.5°
Maximum altitude 03:59:09 37° 41° (NE) 1,138 7.8 -27.4°
Drops below altitude 10° 04:03:44 10° 107° (ESE) 2,123 9.4 -26.4°
Sets 04:06:09 0° 116° (ESE) 2,976 10.1 -25.8°
